Retour au catalogue

STARLINK-2606

ActifCommunicationsVLEO
NORAD 48386·PAYLOAD·🇺🇸 United States

Lancé May 4, 2021 depuis Cape Canaveral Space Force Station

Loading…

Prochains Passages (prochaines 24 heures)

TLE

FraisSource: CelesTrak SupGP

Époque: Sep 15, 2026, 02:15 UTC

1 48386C 21038AK  26258.09423611 -.00000736  00000+0 -23688-4 0  2588
2 48386  53.1598 184.0957 0001560  81.0969 182.9091 15.31687361    13

Suivez STARLINK-2606 en temps réel avec AllMySat

Download on the App Store